TimePDT,TemperatureF,Dew PointF,Humidity,Sea Level PressureIn,VisibilityMPH,Wind Direction,Wind SpeedMPH,Gust SpeedMPH,PrecipitationIn,Events,Conditions,WindDirDegrees,DateUTC
12:53 AM,48.0,45.0,89,-9999,10.0,Calm,Calm,-,N/A,,Clear,0,2012-10-27 07:53:00
1:53 AM,46.9,44.1,90,-9999,10.0,Calm,Calm,-,N/A,,Scattered Clouds,0,2012-10-27 08:53:00
2:53 AM,46.9,44.1,90,-9999,10.0,Calm,Calm,-,N/A,,Scattered Clouds,0,2012-10-27 09:53:00
3:53 AM,48.0,45.0,89,-9999,10.0,Calm,Calm,-,N/A,,Overcast,0,2012-10-27 10:53:00
4:53 AM,48.0,45.0,89,-9999,10.0,NE,4.6,-,N/A,,Overcast,50,2012-10-27 11:53:00
5:53 AM,48.9,46.0,90,-9999,10.0,Calm,Calm,-,0.00,Rain,Light Rain,0,2012-10-27 12:53:00
8:24 AM,48.2,46.4,93,-9999,2.5,Calm,Calm,-,0.05,Rain,Rain,0,2012-10-27 15:24:00
8:53 AM,48.9,46.9,93,-9999,3.0,SSE,3.5,-,0.07,Rain,Light Rain,150,2012-10-27 15:53:00
9:17 AM,50.0,48.2,94,-9999,3.0,SSE,3.5,-,0.03,Rain,Light Rain,160,2012-10-27 16:17:00
9:24 AM,50.0,48.2,94,-9999,2.5,South,4.6,-,0.04,Rain,Rain,170,2012-10-27 16:24:00
9:53 AM,48.9,46.9,93,-9999,2.0,WSW,3.5,-,0.09,Rain,Rain,250,2012-10-27 16:53:00
10:05 AM,48.2,48.2,100,-9999,2.5,Calm,Calm,-,0.01,Rain,Light Rain,0,2012-10-27 17:05:00
10:24 AM,50.0,48.2,94,-9999,4.0,SSW,4.6,-,0.03,Rain,Light Rain,200,2012-10-27 17:24:00
10:53 AM,52.0,48.9,89,30.02,5.0,South,8.1,-,0.04,Rain,Light Rain,170,2012-10-27 17:53:00
11:18 AM,53.6,48.2,82,30.02,5.0,South,9.2,-,0.02,Rain,Light Rain,190,2012-10-27 18:18:00
11:53 AM,53.1,50.0,89,30.01,8.0,SSE,9.2,-,0.04,Rain,Light Rain,160,2012-10-27 18:53:00
12:32 PM,53.6,51.8,94,30.00,2.5,South,6.9,-,0.03,Rain,Light Rain,170,2012-10-27 19:32:00
12:41 PM,53.6,51.8,94,30.00,5.0,SSE,8.1,-,0.03,Rain,Light Rain,160,2012-10-27 19:41:00
12:53 PM,54.0,51.1,90,30.00,6.0,Calm,Calm,-,0.03,Rain,Light Rain,0,2012-10-27 19:53:00
1:04 PM,53.6,51.8,94,29.99,3.0,SE,4.6,-,0.00,Rain,Light Rain,140,2012-10-27 20:04:00
1:13 PM,53.6,51.8,94,29.99,2.5,SE,3.5,-,0.01,Rain,Light Rain,130,2012-10-27 20:13:00
1:23 PM,53.6,51.8,94,29.99,4.0,SSE,4.6,-,0.01,Rain,Light Rain,150,2012-10-27 20:23:00
1:53 PM,55.9,53.1,90,29.98,8.0,Calm,Calm,-,0.03,Rain,Light Rain,0,2012-10-27 20:53:00
2:37 PM,57.2,53.6,88,29.97,3.0,SSW,12.7,18.4,0.02,Rain,Light Rain,200,2012-10-27 21:37:00
2:45 PM,57.2,53.6,88,29.96,3.0,South,12.7,-,0.03,Rain,Light Rain,190,2012-10-27 21:45:00
2:53 PM,57.0,54.0,89,29.96,6.0,South,10.4,-,0.03,Rain,Light Rain,190,2012-10-27 21:53:00
3:53 PM,59.0,55.9,90,29.94,5.0,South,11.5,-,0.02,Rain,Light Rain,190,2012-10-27 22:53:00
4:16 PM,59.0,55.4,88,29.95,10.0,South,10.4,-,0.00,,Overcast,190,2012-10-27 23:16:00
4:51 PM,59.0,55.4,88,29.95,7.0,South,8.1,-,0.03,Rain,Light Rain,190,2012-10-27 23:51:00
4:53 PM,59.0,55.9,90,29.95,6.0,SSW,10.4,-,0.04,Rain,Light Rain,200,2012-10-27 23:53:00
5:53 PM,60.1,55.9,86,29.93,10.0,South,12.7,-,0.01,,Overcast,190,2012-10-28 00:53:00
6:53 PM,61.0,55.9,83,29.91,10.0,South,19.6,23.0,0.01,,Overcast,190,2012-10-28 01:53:00
7:53 PM,60.1,55.9,86,29.93,3.0,SSW,19.6,27.6,0.07,Rain,Rain,200,2012-10-28 02:53:00
8:15 PM,60.8,55.4,82,29.93,3.0,South,17.3,26.5,0.04,Rain,Rain,190,2012-10-28 03:15:00
8:23 PM,60.8,55.4,82,29.94,4.0,South,16.1,-,0.05,Rain,Rain,190,2012-10-28 03:23:00
9:53 PM,60.1,57.0,90,29.95,3.0,SSW,13.8,21.9,0.05,Rain,Light Rain,200,2012-10-28 04:53:00
10:13 PM,60.8,57.2,88,29.95,3.0,SSW,12.7,21.9,0.02,Rain,Light Rain,210,2012-10-28 05:13:00
10:27 PM,59.0,57.2,94,29.96,2.5,SSW,11.5,-,0.04,Rain,Light Rain,210,2012-10-28 05:27:00
10:31 PM,60.8,57.2,88,29.96,3.0,SSW,11.5,-,0.04,Rain,Light Rain,210,2012-10-28 05:31:00
10:53 PM,60.1,57.0,90,29.97,5.0,SSW,11.5,-,0.05,Rain,Light Rain,200,2012-10-28 05:53:00
11:03 PM,60.8,57.2,88,29.97,3.0,SSW,10.4,-,0.00,Rain,Light Rain,210,2012-10-28 06:03:00
11:28 PM,60.8,57.2,88,29.97,2.5,SSW,10.4,-,0.03,Rain,Light Rain,210,2012-10-28 06:28:00
11:35 PM,60.8,57.2,88,29.97,4.0,SSW,9.2,-,0.03,Rain,Light Rain,210,2012-10-28 06:35:00
11:51 PM,60.8,57.2,88,29.97,2.5,SSW,8.1,-,0.05,Rain,Light Rain,200,2012-10-28 06:51:00
11:53 PM,60.1,57.0,90,29.97,2.5,SSW,9.2,-,0.05,Rain,Light Rain,200,2012-10-28 06:53:00